When you browse on this site, cookies collect data to enhance your experience and personalize the content and advertising you see.
Visit our Privacy Policy to learn more. By continuing to use the site, you agree to this use of cookies and data.
  • In Spain
  • List of Countries
  • For 7 days
  • Water Temperature
  • Weather Map
  • Weather Widgets
  • user-avatar
    Login

    Hourly Weather Aleksandria

    Today, 20 October, Sunday

    Time Temperature Precipitation Wind Pressure Humidity
    00:00 +22°C° 0 mm 4 mps 762 mmHg 79%
    01:00 +22°C° 0 mm 4 mps 762 mmHg 80%
    02:00 +22°C° 0 mm 4 mps 762 mmHg 81%
    03:00 +22°C° 0 mm 4 mps 762 mmHg 81%
    04:00 +22°C° 0 mm 4 mps 762 mmHg 81%
    05:00 +22°C° 0 mm 4 mps 762 mmHg 81%
    06:00 +22°C° 0 mm 4 mps 762 mmHg 76%
    07:00 +23°C° 0 mm 4 mps 762 mmHg 71%
    08:00 +25°C° 0 mm 3 mps 762 mmHg 65%
    09:00 +27°C° 0 mm 3 mps 762 mmHg 56%
    10:00 +29°C° 0 mm 2 mps 762 mmHg 46%
    11:00 +32°C° 0 mm 2 mps 763 mmHg 36%
    12:00 +33°C° 0 mm 3 mps 762 mmHg 38%
    13:00 +33°C° 0 mm 3 mps 761 mmHg 39%
    14:00 +33°C° 0 mm 4 mps 761 mmHg 41%
    15:00 +32°C° 0 mm 5 mps 761 mmHg 46%
    16:00 +30°C° 0 mm 5 mps 761 mmHg 51%
    17:00 +29°C° 0 mm 6 mps 761 mmHg 57%
    18:00 +29°C° 0 mm 6 mps 761 mmHg 57%
    19:00 +28°C° 0 mm 6 mps 761 mmHg 58%
    20:00 +27°C° 0 mm 6 mps 761 mmHg 58%
    21:00 +27°C° 0 mm 5 mps 761 mmHg 60%
    22:00 +26°C° 0 mm 5 mps 761 mmHg 62%
    23:00 +25°C° 0 mm 4 mps 761 mmHg 65%

    Tomorrow, 21 October, Monday

    Time Temperature Precipitation Wind Pressure Humidity
    00:00 +25°C° 0 mm 4 mps 761 mmHg 67%
    01:00 +23°C° 0 mm 4 mps 761 mmHg 69%
    02:00 +23°C° 0 mm 4 mps 760 mmHg 72%
    03:00 +24°C° 0 mm 3 mps 760 mmHg 71%
    04:00 +24°C° 0 mm 3 mps 760 mmHg 70%
    05:00 +23°C° 0 mm 2 mps 760 mmHg 69%
    06:00 +24°C° 0 mm 3 mps 760 mmHg 64%
    07:00 +25°C° 0 mm 3 mps 760 mmHg 59%
    08:00 +26°C° 0 mm 4 mps 760 mmHg 54%
    09:00 +28°C° 0.1 mm 4 mps 760 mmHg 50%
    10:00 +29°C° 0.1 mm 4 mps 760 mmHg 46%
    11:00 +32°C° 0.1 mm 5 mps 760 mmHg 42%
    12:00 +30°C° 0 mm 6 mps 760 mmHg 44%
    13:00 +30°C° 0 mm 7 mps 759 mmHg 47%
    14:00 +31°C° 0 mm 8 mps 759 mmHg 49%
    15:00 +28°C° 0.2 mm 8 mps 759 mmHg 55%
    16:00 +27°C° 0.2 mm 9 mps 759 mmHg 60%
    17:00 +26°C° 0.2 mm 9 mps 759 mmHg 66%
    18:00 +24°C° 0.2 mm 8 mps 759 mmHg 69%
    19:00 +23°C° 0.2 mm 7 mps 760 mmHg 71%
    20:00 +22°C° 0.2 mm 6 mps 760 mmHg 74%
    21:00 +22°C° 0.4 mm 5 mps 760 mmHg 76%
    22:00 +22°C° 0.4 mm 4 mps 760 mmHg 77%
    23:00 +21°C° 0.4 mm 3 mps 760 mmHg 79%

    Day after tomorrow, 22 October, Tuesday

    Time Temperature Precipitation Wind Pressure Humidity
    00:00 +21°C° 0.4 mm 3 mps 759 mmHg 79%
    01:00 +21°C° 0.4 mm 3 mps 759 mmHg 79%
    02:00 +21°C° 0.4 mm 3 mps 759 mmHg 79%
    03:00 +21°C° 0.3 mm 3 mps 759 mmHg 79%
    04:00 +21°C° 0.3 mm 3 mps 759 mmHg 80%
    05:00 +21°C° 0.3 mm 4 mps 758 mmHg 80%
    06:00 +22°C° 0.9 mm 4 mps 759 mmHg 76%
    07:00 +24°C° 0.9 mm 3 mps 759 mmHg 73%
    08:00 +25°C° 0.9 mm 3 mps 759 mmHg 69%
    09:00 +25°C° 0.2 mm 4 mps 759 mmHg 66%
    10:00 +26°C° 0.2 mm 5 mps 759 mmHg 63%
    11:00 +27°C° 0.2 mm 5 mps 759 mmHg 59%
    12:00 +27°C° 0 mm 5 mps 758 mmHg 59%
    13:00 +27°C° 0 mm 5 mps 758 mmHg 59%
    14:00 +28°C° 0 mm 6 mps 758 mmHg 59%
    15:00 +27°C° 0 mm 5 mps 758 mmHg 61%
    16:00 +26°C° 0 mm 5 mps 758 mmHg 64%
    17:00 +26°C° 0 mm 5 mps 758 mmHg 66%
    18:00 +25°C° 0 mm 4 mps 758 mmHg 68%
    19:00 +25°C° 0 mm 4 mps 758 mmHg 70%
    20:00 +24°C° 0 mm 3 mps 758 mmHg 73%
    21:00 +24°C° 0 mm 3 mps 758 mmHg 73%
    22:00 +24°C° 0 mm 3 mps 758 mmHg 73%
    23:00 +24°C° 0 mm 2 mps 758 mmHg 74%

    23 October, Wednesday

    Time Temperature Precipitation Wind Pressure Humidity
    00:00 +24°C° 0 mm 2 mps 758 mmHg 74%
    01:00 +24°C° 0 mm 2 mps 758 mmHg 74%
    02:00 +23°C° 0 mm 2 mps 758 mmHg 74%
    03:00 +23°C° 0 mm 2 mps 758 mmHg 73%
    04:00 +23°C° 0 mm 2 mps 758 mmHg 72%
    05:00 +23°C° 0 mm 2 mps 758 mmHg 71%
    06:00 +24°C° 0 mm 2 mps 758 mmHg 67%
    07:00 +24°C° 0 mm 2 mps 758 mmHg 64%
    08:00 +25°C° 0 mm 2 mps 759 mmHg 61%
    09:00 +26°C° 0 mm 3 mps 759 mmHg 57%
    10:00 +27°C° 0 mm 3 mps 759 mmHg 53%
    11:00 +28°C° 0 mm 3 mps 759 mmHg 50%
    12:00 +28°C° 0 mm 4 mps 758 mmHg 49%
    13:00 +28°C° 0 mm 4 mps 758 mmHg 49%
    14:00 +28°C° 0 mm 4 mps 758 mmHg 48%
    15:00 +27°C° 0 mm 4 mps 758 mmHg 51%
    16:00 +27°C° 0 mm 4 mps 758 mmHg 54%
    17:00 +26°C° 0 mm 4 mps 758 mmHg 58%
    18:00 +26°C° 0.1 mm 4 mps 758 mmHg 61%
    19:00 +25°C° 0.1 mm 3 mps 758 mmHg 64%
    20:00 +24°C° 0.1 mm 3 mps 759 mmHg 67%
    21:00 +24°C° 0 mm 3 mps 759 mmHg 67%
    22:00 +24°C° 0 mm 2 mps 759 mmHg 68%
    23:00 +24°C° 0 mm 2 mps 759 mmHg 68%

    24 October, Thursday

    Time Temperature Precipitation Wind Pressure Humidity
    00:00 +24°C° 0.1 mm 2 mps 759 mmHg 69%
    01:00 +23°C° 0.1 mm 1 mps 758 mmHg 70%
    02:00 +23°C° 0.1 mm 1 mps 758 mmHg 71%
    03:00 +23°C° 0.1 mm 1 mps 758 mmHg 71%
    04:00 +23°C° 0.1 mm 1 mps 758 mmHg 72%
    05:00 +22°C° 0.1 mm 1 mps 758 mmHg 73%
    06:00 +23°C° 0.2 mm 1 mps 759 mmHg 71%
    07:00 +23°C° 0.2 mm 1 mps 759 mmHg 68%
    08:00 +24°C° 0.2 mm 1 mps 759 mmHg 66%
    09:00 +25°C° 0 mm 1 mps 759 mmHg 61%
    10:00 +26°C° 0 mm 1 mps 759 mmHg 55%
    11:00 +27°C° 0 mm 1 mps 759 mmHg 50%
    12:00 +28°C° 0 mm 2 mps 759 mmHg 49%
    13:00 +28°C° 0 mm 3 mps 759 mmHg 48%
    14:00 +28°C° 0 mm 3 mps 758 mmHg 47%
    15:00 +27°C° 0 mm 3 mps 758 mmHg 50%
    16:00 +27°C° 0 mm 4 mps 758 mmHg 54%
    17:00 +26°C° 0 mm 4 mps 758 mmHg 57%
    18:00 +25°C° 0 mm 3 mps 759 mmHg 59%
    19:00 +25°C° 0 mm 3 mps 759 mmHg 60%
    20:00 +24°C° 0 mm 2 mps 759 mmHg 62%
    21:00 +24°C° 0 mm 2 mps 759 mmHg 63%
    22:00 +24°C° 0 mm 2 mps 759 mmHg 64%
    23:00 +23°C° 0 mm 1 mps 759 mmHg 64%

    25 October, Friday

    Time Temperature Precipitation Wind Pressure Humidity
    00:00 +23°C° 0 mm 1 mps 759 mmHg 66%
    01:00 +23°C° 0 mm 1 mps 759 mmHg 67%
    02:00 +22°C° 0 mm 1 mps 759 mmHg 69%
    03:00 +22°C° 0 mm 1 mps 759 mmHg 70%
    04:00 +22°C° 0 mm 1 mps 759 mmHg 71%
    05:00 +20°C° 0 mm 0 mps 758 mmHg 72%
    06:00 +22°C° 0.4 mm 1 mps 759 mmHg 69%
    07:00 +23°C° 0.4 mm 1 mps 759 mmHg 67%
    08:00 +24°C° 0.4 mm 1 mps 759 mmHg 65%
    09:00 +25°C° 0.2 mm 1 mps 759 mmHg 59%
    10:00 +26°C° 0.2 mm 2 mps 759 mmHg 54%
    11:00 +27°C° 0.2 mm 2 mps 760 mmHg 49%
    12:00 +27°C° 0 mm 2 mps 759 mmHg 48%
    13:00 +27°C° 0 mm 3 mps 759 mmHg 48%
    14:00 +27°C° 0 mm 3 mps 758 mmHg 47%
    15:00 +27°C° 0 mm 3 mps 758 mmHg 49%
    16:00 +26°C° 0 mm 3 mps 758 mmHg 51%
    17:00 +26°C° 0 mm 3 mps 759 mmHg 53%
    18:00 +25°C° 0 mm 3 mps 759 mmHg 55%
    19:00 +25°C° 0 mm 2 mps 759 mmHg 56%
    20:00 +24°C° 0 mm 2 mps 759 mmHg 58%
    21:00 +24°C° 0 mm 2 mps 759 mmHg 59%
    22:00 +24°C° 0 mm 1 mps 759 mmHg 60%
    23:00 +23°C° 0 mm 1 mps 759 mmHg 61%
    Show more